KD7RF Weather Reports


Display with metric or nautical units.
time (UTC)temp
F
wind
direction
speed
MPH
gust
MPH
rain 1hr
in
rain 24hr
in
rain mn
in
humidity
%
barometer
mb
20210917172514 77 144 3.0 8.0 0.00 0.00 0.00 84 1019.6
20210917172014 77 151 2.0 6.0 0.00 0.00 0.00 85 1019.7
20210917171536 77 111 4.0 6.0 0.00 0.00 0.00 84 1019.7
20210917171015 77 171 2.0 8.0 0.00 0.00 0.00 85 1019.8
20210917170514 77 75 5.0 9.0 0.00 0.00 0.00 84 1019.9
20210917170029 77 81 4.0 9.0 0.00 0.00 0.00 84 1019.8
20210917165514 77 113 4.0 11.0 0.00 0.00 0.00 84 1019.8
20210917165012 77 135 4.0 11.0 0.00 0.00 0.00 84 1019.8
20210917164518 77 132 4.0 8.0 0.00 0.00 0.00 84 1019.9
20210917164011 77 123 1.0 5.0 0.00 0.00 0.00 86 1019.9
20210917163511 76 140 1.0 8.0 0.00 0.00 0.00 86 1019.9
20210917163011 76 130 4.0 9.0 0.00 0.00 0.00 85 1020.0
20210917162509 76 100 6.0 9.0 0.00 0.00 0.00 85 1020.0
20210917162008 76 148 3.0 9.0 0.00 0.00 0.00 85 1020.0
20210917161518 76 116 3.0 10.0 0.00 0.00 0.00 84 1020.1
20210917161008 77 57 4.0 10.0 0.00 0.00 0.00 85 1020.0
20210917160510 77 131 2.0 11.0 0.00 0.00 0.00 84 1020.0
20210917160010 77 121 5.0 11.0 0.00 0.00 0.00 84 1020.0
20210917155510 77 114 7.0 11.0 0.00 0.00 0.00 83 1019.9
20210917155007 77 131 3.0 10.0 0.00 0.00 0.00 84 1019.9
20210917154511 77 168 2.0 9.0 0.00 0.00 0.00 85 1019.9
20210917154006 77 142 1.0 9.0 0.00 0.00 0.00 85 1019.9
20210917153509 76 175 2.0 9.0 0.00 0.00 0.00 85 1019.9
20210917153018 76 117 5.0 12.0 0.00 0.00 0.00 85 1019.9
20210917152502 76 103 5.0 12.0 0.00 0.00 0.00 84 1019.9
20210917152005 76 115 3.0 10.0 0.00 0.00 0.00 86 1019.9
20210917151643 76 84 4.0 10.0 0.00 0.00 0.00 85 1019.8
20210917151058 76 109 2.0 9.0 0.00 0.00 0.00 87 1019.8
20210917150557 75 134 5.0 9.0 0.00 0.00 0.00 86 1019.8
20210917150219 75 115 3.0 9.0 0.00 0.00 0.00 87 1019.7
20210917145556 75 94 5.0 9.0 0.00 0.00 0.00 87 1019.6
20210917145055 75 115 5.0 9.0 0.00 0.00 0.00 87 1019.7
20210917144721 75 103 3.0 8.0 0.00 0.00 0.00 88 1019.7
20210917144054 74 124 3.0 10.0 0.00 0.00 0.00 87 1019.6
20210917143551 74 141 5.0 10.0 0.00 0.00 0.00 88 1019.6
20210917143104 74 121 3.0 9.0 0.00 0.00 0.00 88 1019.5
20210917142051 74 112 3.0 8.0 0.00 0.00 0.00 88 1019.4
20210917141641 74 140 4.0 8.0 0.00 0.00 0.00 88 1019.4
20210917141042 74 123 1.0 5.0 0.00 0.00 0.00 89 1019.5
20210917140559 74 149 2.0 5.0 0.00 0.00 0.00 89 1019.5
20210917140114 74 103 1.0 8.0 0.00 0.00 0.00 90 1019.4
20210917135542 74 105 3.0 6.0 0.00 0.00 0.00 90 1019.4
20210917135107 74 125 2.0 6.0 0.00 0.00 0.00 90 1019.3
20210917134556 74 134 1.0 4.0 0.00 0.00 0.00 90 1019.1
20210917134034 73 142 0.0 7.0 0.00 0.00 0.00 91 1019.1
20210917133533 73 133 3.0 7.0 0.00 0.00 0.00 90 1019.1
20210917133041 73 98 2.0 6.0 0.00 0.00 0.00 90 1019.1
20210917132532 73 132 3.0 6.0 0.00 0.00 0.00 90 1019.0
20210917132034 73 132 2.0 7.0 0.00 0.00 0.00 91 1019.0
20210917131541 73 113 2.0 6.0 0.00 0.00 0.00 91 1019.0
20210917131032 73 141 1.0 8.0 0.00 0.00 0.00 90 1018.9
20210917130528 73 105 3.0 8.0 0.00 0.00 0.00 90 1018.8
20210917130032 73 94 2.0 8.0 0.00 0.00 0.00 91 1018.8
20210917125526 73 134 2.0 8.0 0.00 0.00 0.00 91 1018.9
20210917125026 73 128 2.0 6.0 0.00 0.00 0.00 91 1018.8
20210917124524 73 148 0.0 6.0 0.00 0.00 0.00 91 1018.7
20210917124027 73 95 1.0 5.0 0.00 0.00 0.00 91 1018.6
20210917123523 73 124 1.0 6.0 0.00 0.00 0.00 91 1018.6
20210917123045 73 121 2.0 6.0 0.00 0.00 0.00 91 1018.5
20210917122516 73 114 1.0 8.0 0.00 0.00 0.00 91 1018.5
20210917122020 72 115 2.0 8.0 0.00 0.00 0.00 91 1018.5
20210917121540 72 135 2.0 4.0 0.00 0.00 0.00 91 1018.5
20210917121013 72 120 1.0 6.0 0.00 0.00 0.00 91 1018.5
20210917120511 72 120 2.0 8.0 0.00 0.00 0.00 92 1018.3
20210917120016 72 133 4.0 8.0 0.00 0.00 0.00 92 1018.4
20210917115536 72 109 3.0 8.0 0.00 0.00 0.00 92 1018.4
20210917115011 72 90 2.0 7.0 0.00 0.00 0.00 92 1018.4
20210917114513 72 137 2.0 7.0 0.00 0.00 0.00 92 1018.2
20210917114012 72 111 2.0 6.0 0.00 0.00 0.00 92 1018.1
20210917113509 72 125 3.0 8.0 0.00 0.00 0.00 92 1018.1
20210917113010 72 153 2.0 8.0 0.00 0.00 0.00 92 1018.0
20210917112510 71 109 0.0 4.0 0.00 0.00 0.00 92 1018.1
20210917112007 71 110 2.0 4.0 0.00 0.00 0.00 92 1018.2
20210917111507 71 127 1.0 3.0 0.00 0.00 0.00 92 1018.1
20210917111006 71 110 1.0 3.0 0.00 0.00 0.00 93 1018.0
20210917110516 71 109 0.0 3.0 0.00 0.00 0.00 93 1018.0
20210917110008 71 109 1.0 4.0 0.00 0.00 0.00 93 1017.9
20210917105505 71 118 1.0 4.0 0.00 0.00 0.00 93 1017.9
20210917105005 71 117 1.0 3.0 0.00 0.00 0.00 93 1017.9
20210917104516 71 117 1.0 3.0 0.00 0.00 0.00 93 1017.8
20210917104006 71 117 1.0 3.0 0.00 0.00 0.00 93 1017.7
20210917103505 71 117 0.0 2.0 0.00 0.00 0.00 93 1017.7
20210917103010 71 117 1.0 3.0 0.00 0.00 0.00 93 1017.7
20210917102504 71 117 1.0 3.0 0.00 0.00 0.00 93 1017.7
20210917102002 71 117 1.0 4.0 0.00 0.00 0.00 93 1017.6
20210917101504 71 116 1.0 4.0 0.00 0.00 0.00 92 1017.6
20210917101001 71 155 0.0 3.0 0.00 0.00 0.00 92 1017.5
20210917100500 71 250 1.0 4.0 0.00 0.00 0.00 92 1017.3
20210917100238 71 117 1.0 4.0 0.00 0.00 0.00 92 1017.3
20210917095600 71 122 1.0 4.0 0.00 0.00 0.00 92 1017.2
20210917095106 71 101 1.0 6.0 0.00 0.00 0.00 92 1017.2
20210917094804 71 123 1.0 7.0 0.00 0.00 0.00 92 1017.1
20210917094124 71 99 3.0 7.0 0.00 0.00 0.00 92 1016.9
20210917093559 71 96 2.0 6.0 0.00 0.00 0.00 92 1016.9
20210917093105 71 109 2.0 6.0 0.00 0.00 0.00 92 1017.0
20210917092559 71 147 1.0 4.0 0.00 0.00 0.00 92 1016.9
20210917092059 71 180 1.0 3.0 0.00 0.00 0.00 92 1016.9
20210917091610 71 117 1.0 4.0 0.00 0.00 0.00 92 1016.9
20210917091105 71 140 1.0 7.0 0.00 0.00 0.00 92 1016.9
20210917090615 71 147 2.0 7.0 0.00 0.00 0.00 93 1016.9
20210917090159 71 110 0.0 2.0 0.00 0.00 0.00 93 1016.8
20210917085626 71 81 0.0 3.0 0.00 0.00 0.00 92 1016.8
20210917085058 71 132 0.0 3.0 0.00 0.00 0.00 92 1016.9
20210917084706 71 132 0.0 2.0 0.00 0.00 0.00 92 1016.9
20210917084057 71 132 0.0 2.0 0.00 0.00 0.00 91 1016.8
20210917083556 72 132 0.0 4.0 0.00 0.00 0.00 91 1016.7
20210917083130 72 132 1.0 4.0 0.00 0.00 0.00 91 1016.7
20210917082622 72 132 1.0 5.0 0.00 0.00 0.00 91 1016.8
20210917082549 72 132 1.0 5.0 0.00 0.00 0.00 91 1016.8
20210917082109 72 107 3.0 8.0 0.00 0.00 0.00 91 1016.7
20210917081628 72 87 4.0 8.0 0.00 0.00 0.00 91 1016.6
20210917081054 72 124 2.0 7.0 0.00 0.00 0.00 91 1016.6
20210917080554 72 92 3.0 7.0 0.00 0.00 0.00 91 1016.7
20210917080055 72 96 2.0 8.0 0.00 0.00 0.00 90 1016.7
20210917075553 72 80 3.0 8.0 0.00 0.00 0.00 90 1016.7
20210917075051 72 102 3.0 7.0 0.00 0.00 0.00 90 1016.7
20210917074716 72 84 4.0 8.0 0.00 0.00 0.00 90 1016.8
20210917074049 72 88 2.0 8.0 0.00 0.00 0.00 90 1016.9
20210917073606 73 102 3.0 8.0 0.00 0.00 0.00 90 1016.8
20210917073052 73 94 3.0 7.0 0.00 0.00 0.00 90 1016.8
20210917072553 73 92 1.0 8.0 0.00 0.00 0.00 90 1016.9
20210917072051 73 123 2.0 8.0 0.00 0.00 0.00 90 1016.9
20210917071609 72 134 2.0 8.0 0.00 0.00 0.00 90 1017.0
20210917071044 72 122 3.0 8.0 0.00 0.00 0.00 90 1017.0
20210917070539 72 112 2.0 8.0 0.00 0.00 0.00 90 1016.9
20210917070057 72 123 3.0 8.0 0.00 0.00 0.00 90 1017.0
20210917065542 72 132 3.0 8.0 0.00 0.00 0.00 90 1017.0
20210917065034 73 121 5.0 8.0 0.00 0.00 0.00 90 1017.0
20210917064601 73 107 4.0 8.0 0.00 0.00 0.00 90 1017.0
20210917064032 73 120 2.0 7.0 0.00 0.00 0.00 90 1017.0
20210917063534 73 131 2.0 8.0 0.00 0.00 0.00 90 1017.2
20210917063114 73 151 3.0 8.0 0.00 0.00 0.00 90 1017.2
20210917062527 73 113 3.0 9.0 0.00 0.00 0.00 90 1017.1
20210917062031 73 138 3.0 9.0 0.00 0.00 0.00 90 1017.2
20210917061545 73 128 2.0 8.0 0.00 0.00 0.00 90 1017.2
20210917061027 72 115 4.0 11.0 0.00 0.00 0.00 90 1017.2
20210917060521 72 134 4.0 11.0 0.00 0.00 0.00 90 1017.2
20210917060020 72 103 4.0 8.0 0.00 0.00 0.00 90 1017.3
20210917055518 72 126 4.0 9.0 0.00 0.00 0.00 90 1017.3
20210917055017 72 119 3.0 9.0 0.00 0.00 0.00 91 1017.3
20210917054533 72 115 3.0 7.0 0.00 0.00 0.00 91 1017.3
20210917054028 72 110 3.0 7.0 0.00 0.00 0.00 91 1017.3
20210917053520 72 113 3.0 6.0 0.00 0.00 0.00 91 1017.3
20210917053019 72 132 2.0 4.0 0.00 0.00 0.00 91 1017.3
20210917052516 72 128 2.0 4.0 0.00 0.00 0.00 91 1017.2
20210917052012 72 115 2.0 3.0 0.00 0.00 0.00 91 1017.3
20210917051543 72 125 1.0 3.0 0.00 0.00 0.00 91 1017.3
20210917051009 72 124 1.0 3.0 0.00 0.00 0.00 91 1017.3
20210917050511 72 124 1.0 6.0 0.00 0.00 0.00 91 1017.4
20210917050056 72 128 3.0 6.0 0.00 0.00 0.00 91 1017.4
20210917045505 72 130 2.0 6.0 0.00 0.00 0.00 91 1017.4
20210917045005 72 125 3.0 6.0 0.00 0.00 0.00 91 1017.3
20210917044505 72 118 1.0 4.0 0.00 0.00 0.00 91 1017.3
20210917044005 72 132 1.0 4.0 0.00 0.00 0.00 90 1017.3
20210917043504 72 136 1.0 2.0 0.00 0.00 0.00 91 1017.3
20210917043005 72 136 0.0 3.0 0.00 0.00 0.00 91 1017.3
20210917042504 72 136 1.0 3.0 0.00 0.00 0.00 90 1017.2
20210917042003 72 136 0.0 3.0 0.00 0.00 0.00 90 1017.2
20210917041521 73 136 0.0 3.0 0.00 0.00 0.00 90 1017.1
20210917041003 73 136 0.0 3.0 0.00 0.00 0.00 90 1017.0
20210917040505 73 136 0.0 4.0 0.00 0.00 0.00 89 1017.1
20210917040007 73 126 0.0 4.0 0.00 0.00 0.00 89 1017.1
20210917035505 73 126 1.0 4.0 0.00 0.00 0.00 89 1017.1
20210917035002 73 123 1.0 4.0 0.00 0.00 0.00 89 1017.1
20210917034508 73 157 1.0 8.0 0.00 0.00 0.00 89 1017.2
20210917034002 73 153 2.0 8.0 0.00 0.00 0.00 89 1017.1
20210917033502 73 132 2.0 4.0 0.00 0.00 0.00 89 1017.1
20210917033003 73 167 1.0 6.0 0.00 0.00 0.00 90 1017.1
20210917032501 73 100 2.0 8.0 0.00 0.00 0.00 90 1016.9
20210917032001 73 158 2.0 8.0 0.00 0.00 0.00 89 1016.9
20210917031640 73 111 2.0 8.0 0.00 0.00 0.00 90 1016.9
20210917031501 73 115 2.0 8.0 0.00 0.00 0.00 90 1017.0
20210917031100 73 109 3.0 7.0 0.00 0.00 0.00 89 1017.1
20210917030601 73 84 3.0 7.0 0.00 0.00 0.00 89 1017.0
20210917030138 73 110 3.0 7.0 0.00 0.00 0.00 89 1017.2
20210917025603 73 115 4.0 7.0 0.00 0.00 0.00 89 1017.2
20210917025059 73 115 3.0 7.0 0.00 0.00 0.00 89 1017.2
20210917024725 73 117 3.0 9.0 0.00 0.00 0.00 89 1017.1
20210917024101 73 101 4.0 9.0 0.00 0.00 0.00 90 1017.3
20210917023641 73 103 3.0 8.0 0.00 0.00 0.00 90 1017.3
20210917023256 73 124 2.0 6.0 0.00 0.00 0.00 90 1017.3
20210917022559 73 117 1.0 6.0 0.00 0.00 0.00 91 1017.3
20210917022102 72 155 2.0 6.0 0.00 0.00 0.00 91 1017.2
20210917021804 72 122 2.0 4.0 0.00 0.00 0.00 92 1017.1
20210917021102 72 128 1.0 3.0 0.00 0.00 0.00 92 1017.2
20210917020557 72 128 1.0 4.0 0.00 0.00 0.00 92 1017.2
20210917020150 72 109 1.0 4.0 0.00 0.00 0.00 92 1017.1
20210917015604 72 114 1.0 4.0 0.00 0.00 0.00 92 1017.1
20210917015057 72 114 2.0 4.0 0.00 0.00 0.00 92 1017.1
20210917014619 72 114 1.0 3.0 0.00 0.00 0.00 92 1017.1
20210917014148 72 114 1.0 2.0 0.00 0.00 0.00 92 1017.0
20210917013632 73 114 1.0 2.0 0.00 0.00 0.00 92 1017.0
20210917013224 73 114 1.0 2.0 0.00 0.00 0.00 91 1016.9
20210917012558 73 114 1.0 4.0 0.00 0.00 0.00 91 1016.9
20210917012114 73 114 2.0 4.0 0.00 0.00 0.00 91 1016.7
20210917011648 73 114 0.0 3.0 0.00 0.00 0.00 91 1016.7
20210917011109 73 114 1.0 3.0 0.00 0.00 0.00 91 1016.6
20210917010554 73 114 1.0 2.0 0.00 0.00 0.00 91 1016.6
20210917010106 73 114 0.0 3.0 0.00 0.00 0.00 91 1016.6
20210917005554 73 114 1.0 3.0 0.00 0.00 0.00 91 1016.5
20210917005110 73 114 1.0 4.0 0.00 0.00 0.00 92 1016.5
20210917004713 72 114 1.0 3.0 0.00 0.00 0.00 92 1016.4
20210917004102 72 114 1.0 3.0 0.00 0.00 0.00 93 1016.2
20210917003602 72 114 0.0 3.0 0.00 0.00 0.00 94 1016.3
20210917003120 72 114 0.0 2.0 0.00 0.00 0.00 94 1016.3
20210917002601 72 114 0.0 2.0 0.00 0.00 0.00 94 1016.2
20210917002052 72 114 0.0 1.0 0.00 0.00 0.00 93 1016.2
20210917001622 72 114 0.0 1.0 0.00 0.00 0.00 93 1016.1
20210917001111 72 114 0.0 1.0 0.00 0.00 0.00 92 1016.0
20210917000552 72 114 0.0 1.0 0.00 0.00 0.00 92 1016.0
20210917000116 73 114 0.0 0.0 0.00 0.00 0.00 91 1016.0
20210916235552 73 114 0.0 0.0 0.00 0.00 0.00 91 1015.9
20210916235109 73 114 0.0 1.0 0.00 0.00 0.00 91 1015.8
20210916234654 73 114 0.0 1.0 0.00 0.00 0.00 90 1015.9
20210916234052 74 114 0.0 1.0 0.00 0.00 0.00 90 1015.8
20210916233553 74 114 0.0 1.0 0.00 0.00 0.00 89 1016.0
20210916233234 74 114 0.0 1.0 0.00 0.00 0.00 88 1015.9
20210916232552 74 114 0.0 2.0 0.00 0.00 0.00 88 1015.9
20210916232051 75 114 0.0 2.0 0.00 0.00 0.00 87 1015.8
20210916231614 75 114 0.0 2.0 0.00 0.00 0.00 86 1015.8
20210916231054 75 114 0.0 3.0 0.00 0.00 0.00 85 1015.8
20210916230550 75 114 1.0 4.0 0.00 0.00 0.00 85 1015.8
20210916230108 75 114 1.0 4.0 0.00 0.00 0.00 84 1015.7
20210916225551 75 114 1.0 4.0 0.00 0.00 0.00 84 1015.6
20210916225050 76 115 1.0 6.0 0.00 0.00 0.00 84 1015.6
20210916224616 76 144 3.0 6.0 0.00 0.00 0.00 84 1015.6
20210916224055 76 114 1.0 5.0 0.00 0.00 0.00 85 1015.5
20210916223550 76 119 2.0 5.0 0.00 0.00 0.00 84 1015.6
20210916223135 76 122 1.0 5.0 0.00 0.00 0.00 85 1015.5
20210916222648 76 100 3.0 5.0 0.00 0.00 0.00 84 1015.4
20210916222049 76 123 2.0 5.0 0.00 0.00 0.00 85 1015.3
20210916221702 76 117 1.0 4.0 0.00 0.00 0.00 85 1015.3
20210916221048 76 117 1.0 4.0 0.00 0.00 0.00 85 1015.3
20210916220548 76 78 1.0 6.0 0.00 0.00 0.00 85 1015.4
20210916220127 76 136 2.0 6.0 0.00 0.00 0.00 84 1015.5
20210916215548 76 117 2.0 4.0 0.00 0.00 0.00 85 1015.3
20210916215105 76 119 2.0 5.0 0.00 0.00 0.00 85 1015.2
20210916214609 76 117 2.0 5.0 0.00 0.00 0.00 84 1015.3
20210916214047 76 98 2.0 9.0 0.00 0.00 0.00 84 1015.3
20210916213548 76 161 4.0 10.0 0.00 0.00 0.00 85 1015.2
20210916213140 76 142 4.0 10.0 0.00 0.00 0.00 84 1015.3
20210916212545 76 109 2.0 7.0 0.00 0.00 0.00 86 1015.3
20210916212046 76 110 2.0 7.0 0.00 0.00 0.00 86 1015.3
20210916211609 76 189 0.0 4.0 0.00 0.00 0.00 87 1015.2
20210916211100 76 138 2.0 6.0 0.00 0.00 0.00 88 1015.2
20210916210552 76 118 2.0 5.0 0.00 0.00 0.00 87 1015.3
20210916210125 75 146 0.0 5.0 0.00 0.00 0.00 87 1015.3
20210916205544 76 164 2.0 8.0 0.00 0.00 0.00 86 1015.3
20210916205043 76 234 2.0 8.0 0.00 0.00 0.00 85 1015.3
20210916204644 76 137 2.0 8.0 0.00 0.00 0.00 85 1015.2
20210916204047 76 139 3.0 8.0 0.00 0.00 0.00 85 1015.3
20210916203543 76 99 2.0 8.0 0.00 0.00 0.00 85 1015.3
20210916203114 76 137 2.0 7.0 0.00 0.00 0.00 85 1015.3
20210916202541 76 78 3.0 7.0 0.00 0.00 0.00 85 1015.3
20210916202043 76 108 0.0 8.0 0.00 0.00 0.00 86 1015.4
20210916201631 75 93 2.0 8.0 0.00 0.00 0.00 85 1015.4
20210916201051 75 104 3.0 8.0 0.00 0.00 0.00 86 1015.4
20210916200553 75 90 2.0 8.0 0.00 0.00 0.00 86 1015.6
20210916200119 75 119 4.0 9.0 0.00 0.00 0.00 85 1015.6
20210916195541 76 103 4.0 9.0 0.00 0.00 0.00 83 1015.7
20210916195052 76 94 3.0 9.0 0.00 0.00 0.00 83 1015.7
20210916194651 76 125 2.0 9.0 0.00 0.00 0.00 82 1015.6
20210916194042 77 83 5.0 11.0 0.00 0.00 0.00 81 1015.7
20210916193552 77 130 5.0 12.0 0.00 0.00 0.00 81 1015.6
20210916193123 77 93 4.0 13.0 0.00 0.00 0.00 81 1015.7
20210916192544 78 84 6.0 13.0 0.00 0.00 0.00 80 1015.8
20210916192039 77 123 4.0 11.0 0.00 0.00 0.00 80 1015.9
20210916191542 78 101 5.0 13.0 0.00 0.00 0.00 79 1015.9
20210916191038 78 157 4.0 13.0 0.00 0.00 0.00 81 1016.0
20210916190547 77 100 6.0 12.0 0.00 0.00 0.00 80 1016.1
20210916190045 77 119 6.0 13.0 0.00 0.00 0.00 81 1016.1
20210916185537 77 143 5.0 13.0 0.00 0.00 0.00 81 1016.1
20210916185116 77 127 5.0 13.0 0.00 0.00 0.00 81 1016.2
20210916184559 77 84 6.0 13.0 0.00 0.00 0.00 79 1016.2
20210916184037 77 113 7.0 13.0 0.00 0.00 0.00 79 1016.2
20210916183537 77 117 3.0 11.0 0.00 0.00 0.00 81 1016.2
20210916183119 77 97 4.0 8.0 0.00 0.00 0.00 80 1016.2
20210916182535 78 112 5.0 8.0 0.00 0.00 0.00 79 1016.3
20210916182035 78 173 2.0 8.0 0.00 0.00 0.00 81 1016.4
20210916181616 77 144 4.0 12.0 0.00 0.00 0.00 81 1016.4
20210916181035 77 40 6.0 12.0 0.00 0.00 0.00 82 1016.5
20210916180537 77 142 3.0 7.0 0.00 0.00 0.00 83 1016.5
20210916180101 76 146 3.0 11.0 0.00 0.00 0.00 81 1016.5
20210916175546 76 104 5.0 11.0 0.00 0.00 0.00 81 1016.5
20210916175035 76 126 4.0 8.0 0.00 0.00 0.00 82 1016.6
20210916174535 76 128 3.0 9.0 0.00 0.00 0.00 82 1016.6
20210916174041 76 131 5.0 9.0 0.00 0.00 0.00 82 1016.6
20210916173535 76 135 4.0 9.0 0.00 0.00 0.00 81 1016.7
20210916173118 76 117 4.0 11.0 0.00 0.00 0.00 81 1016.7